Home   Weather   Sarajevo   Past weeks

Flag for Bosnia-Herzegovina Past Weather in Sarajevo, Bosnia-Herzegovina — Yesterday and Last 2 Weeks

Now
34 °F

Clear.


Feels Like: 34 °F
Forecast: 26 / 57 °F
Wind: No wind

Location: Sarajevo / Butmir

Current Time: Apr 24, 2017 at 12:01:39 am

Latest Report: Apr 23, 2017 at 11:00 pm


Visibility: 10 mi

Pressure: 30.21 "Hg (28.29 "Hg at 526m altitude)

Humidity: 93%

Dew Point: 32 °F

Location of SarajevoLocation

Past Weather in Sarajevo — Graph

°F

Sarajevo Temperature Yesterday

Maximum temperature yesterday: 48 °F (at 5:00 pm)
Minimum temperature yesterday: 34 °F (at 1:00 am)
Average temperature yesterday: 40 °F

High & Low Weather Summary for the Past Weeks

 TemperatureHumidityPressure
High72 °F (Apr 13, 4:00 pm)100% (Apr 9, 4:00 am)30.33 "Hg (Apr 9, 4:00 am)
Low27 °F (Apr 22, 2:00 am)23% (Apr 13, 4:00 pm)29.77 "Hg (Apr 13, 4:00 pm)
Average46 °F75%30.03 "Hg
* Reported Apr 8 11:00 pm — Apr 23 11:00 pm, Sarajevo, Weather by CustomWeather, © 2017

Note: Actual official high and low records may vary slightly from our data, if they occured in-between our weather recording intervals... More about our weather records

Advertising

Sarajevo Weather History for the Previous 24 Hours

Scroll right to see more
 ConditionsComfort  
Time TempWeatherWind HumidityBarometerVisibility
11:00 pm
Sun, Apr 23
34 °FClear.No wind93%30.21 "Hg10 mi
10:30 pm36 °FClear.1 mph93%30.18 "Hg10 mi
10:00 pm36 °FClear.1 mph87%30.18 "Hg10 mi
9:00 pm37 °FPassing clouds.3 mph81%30.18 "HgN/A
8:30 pm37 °FPassing clouds.3 mph81%30.15 "HgN/A
8:00 pm39 °FPassing clouds.1 mph81%30.12 "HgN/A
7:30 pm43 °FPassing clouds.2 mph71%30.12 "HgN/A
7:00 pm46 °FScattered clouds.2 mph66%30.12 "HgN/A
6:30 pm48 °FScattered clouds.2 mph54%30.12 "HgN/A
6:00 pm48 °FScattered clouds.1 mph54%30.12 "HgN/A
5:30 pm48 °FScattered clouds.1 mph58%30.12 "HgN/A
5:00 pm48 °FScattered clouds.2 mph62%30.12 "HgN/A
4:30 pm46 °FBroken clouds.2 mph66%30.12 "HgN/A
4:00 pm45 °FBroken clouds.1 mph71%30.12 "HgN/A
3:00 pm43 °FBroken clouds.2 mph76%30.15 "HgN/A
2:00 pm43 °FBroken clouds.5 mph81%30.15 "HgN/A
1:30 pm41 °FBroken clouds.8 mph93%30.15 "HgN/A
1:00 pm39 °FLight rain. Broken clouds.7 mph93%30.15 "Hg5 mi
12:30 pm39 °FRain. Broken clouds.6 mph93%30.15 "Hg2 mi
12:00 pm39 °FRain. Broken clouds.10 mph93%30.15 "Hg2 mi
11:30 am41 °FLight rain. Broken clouds.9 mph81%30.12 "Hg4 mi
11:00 am41 °FLight rain. Broken clouds.9 mph87%30.09 "Hg4 mi
10:30 am43 °FLight rain. Partly sunny.3 mph81%30.09 "Hg4 mi
10:00 am43 °FLight rain. Broken clouds.2 mph76%30.07 "Hg4 mi
9:00 am41 °FScattered clouds.1 mph81%30.04 "Hg4 mi
8:30 am39 °FScattered clouds.1 mph87%30.04 "Hg4 mi
8:00 am37 °FPartly sunny.1 mph93%30.04 "Hg4 mi
7:30 am37 °FPartly sunny.1 mph93%30.01 "Hg5 mi
7:00 am36 °FPartly sunny.1 mph100%30.01 "Hg5 mi
6:30 am36 °FPartly sunny.No wind93%30.01 "Hg5 mi
6:00 am36 °FScattered clouds.2 mph93%29.98 "HgN/A
5:30 am36 °FPassing clouds.No wind93%29.98 "HgN/A
5:00 am34 °FPassing clouds.No wind100%30.01 "HgN/A
4:00 am34 °FClear.1 mph100%30.01 "Hg10 mi
3:00 am34 °FClear.1 mph93%30.01 "Hg10 mi
2:00 am34 °FClear.No wind93%30.04 "Hg10 mi
1:00 am34 °FClear.No wind93%30.04 "Hg10 mi
12:00 am36 °FClear.2 mph93%30.04 "Hg10 mi
Weather by CustomWeather, © 2017

See weather overviewHow to use our weather pages